Sanborn, NY

8:40 PM EST on December 07, 2016 (GMT -0500)
Niagara Falls International

Weather History for KIAG - June, 2013

Change the Weather History Date:

Thursday, June 27, 2013

  Actual Average Record
Temperature  
Mean Temperature 70 °F -  
Max Temperature 78 °F 78 °F 95 °F (2005)
Min Temperature 64 °F 58 °F 53 °F (2004)
Cooling Degree Days 6    
Growing Degree Days 20 (Base 50)    
Moisture  
Dew Point 65 °F    
Average Humidity 83    
Maximum Humidity 97    
Minimum Humidity 74    
Precipitation  
Precipitation 0.65 in - - ()
Sea Level Pressure  
Sea Level Pressure 29.71 in    
Wind  
Wind Speed 4 mph (NNE)    
Max Wind Speed 14 mph    
Max Gust Speed 25 mph    
Visibility 9 miles    
Events Rain , Thunderstorm    
Averages and records for this station are not official NWS values.
T = Trace of Precipitation, MM = Missing Value Source: NWS Daily Summary

Daily Weather History Graph

Daily Weather History Graph

Search for Another Location

Airport or City:

Trip Planner

Search our weather history database for the weather conditions in past years. The results will help you decide how hot, cold, wet, or windy it might be!

Date:

Astronomy

Jun. 27, 2013 Rise Set
Actual Time 5:38 AM EDT 8:59 PM EDT
Civil Twilight 5:02 AM EDT 9:34 PM EDT
Nautical Twilight 4:16 AM EDT 10:20 PM EDT
Astronomical Twilight 3:19 AM EDT 11:17 PM EDT
Moon 11:46 PM EDT (6/27) 10:45 AM EDT (6/27)
Length of Visible Light 16h 31m
Length of Day
15h 21m
Waning Gibbous, 76% of the Moon is Illuminated
Jun 27
Waning Gibbous
Jun 30
Last Quarter
Jul 8
New
Jul 15
First Quarter
Jul 22
Full

Hourly Weather History & Observations

Time (EDT) Temp. Dew Point Humidity Pressure Visibility Wind Dir Wind Speed Gust Speed Precip Events Conditions
12:53 AM 69.1 °F 62.1 °F 78% 29.79 in 10.0 mi SW 6.9 mph - N/A   Mostly Cloudy
1:53 AM 66.9 °F 62.1 °F 84% 29.77 in 10.0 mi Calm Calm - N/A   Clear
2:53 AM 66.9 °F 62.1 °F 84% 29.77 in 10.0 mi Calm Calm - N/A   Clear
3:53 AM 64.9 °F 61.0 °F 87% 29.76 in 10.0 mi Calm Calm - N/A   Clear
4:53 AM 64.9 °F 62.1 °F 90% 29.76 in 10.0 mi Calm Calm - N/A   Scattered Clouds
5:53 AM 64.9 °F 62.1 °F 90% 29.76 in 9.0 mi Calm Calm - 0.00 in   Clear
6:53 AM 68.0 °F 64.9 °F 90% 29.75 in 8.0 mi Calm Calm - N/A   Clear
7:00 AM 69.8 °F 64.4 °F 83% 29.76 in 9.0 mi Calm Calm - N/A   Overcast
7:53 AM 72.0 °F 66.0 °F 81% 29.74 in 10.0 mi South 3.5 mph - N/A   Overcast
8:53 AM 73.9 °F 66.9 °F 79% 29.73 in 10.0 mi Calm Calm - N/A   Overcast
9:53 AM 75.0 °F 66.9 °F 76% 29.73 in 10.0 mi Calm Calm - N/A   Overcast
10:53 AM 75.9 °F 68.0 °F 76% 29.73 in 10.0 mi Calm Calm - N/A   Overcast
11:53 AM 77.0 °F 68.0 °F 74% 29.73 in 10.0 mi Calm Calm - N/A   Overcast
12:53 PM 75.9 °F 68.0 °F 76% 29.72 in 10.0 mi North 3.5 mph - N/A   Overcast
1:53 PM 77.0 °F 70.0 °F 79% 29.70 in 10.0 mi NE 4.6 mph - N/A   Overcast
2:18 PM 77.0 °F 69.8 °F 78% 29.71 in 10.0 mi ENE 3.5 mph - N/A Thunderstorm Overcast
2:32 PM 77.0 °F 69.8 °F 78% 29.72 in 10.0 mi East 12.7 mph 25.3 mph 0.00 in Rain , Thunderstorm Light Thunderstorms and Rain
2:48 PM 69.8 °F 62.6 °F 78% 29.72 in 7.0 mi South 13.8 mph - 0.00 in Rain , Thunderstorm Light Thunderstorms and Rain
2:53 PM 68.0 °F 63.0 °F 84% 29.71 in 7.0 mi SSE 12.7 mph - 0.01 in Rain , Thunderstorm Light Thunderstorms and Rain
3:11 PM 68.0 °F 62.6 °F 83% 29.71 in 10.0 mi South 5.8 mph - 0.00 in Rain , Thunderstorm Light Rain
3:37 PM 69.8 °F 64.4 °F 83% 29.70 in 10.0 mi North 3.5 mph - 0.00 in Thunderstorm Overcast
3:48 PM 69.8 °F 64.4 °F 83% 29.70 in 10.0 mi WNW 4.6 mph - 0.00 in Rain , Thunderstorm Light Rain
3:53 PM 69.1 °F 64.0 °F 84% 29.70 in 10.0 mi WNW 6.9 mph - 0.00 in Rain , Thunderstorm Light Rain
4:03 PM 69.8 °F 64.4 °F 83% 29.70 in 10.0 mi NNW 6.9 mph - 0.00 in Rain Light Rain
4:53 PM 69.1 °F 64.0 °F 84% 29.68 in 10.0 mi NW 4.6 mph - 0.01 in Rain Light Rain
5:20 PM 69.8 °F 62.6 °F 78% 29.69 in 10.0 mi NNW 4.6 mph - 0.00 in   Overcast
5:53 PM 70.0 °F 63.0 °F 78% 29.68 in 10.0 mi NNW 8.1 mph - 0.00 in   Overcast
6:53 PM 71.1 °F 64.0 °F 78% 29.68 in 9.0 mi East 6.9 mph 19.6 mph 0.00 in Rain Light Rain
7:45 PM 68.0 °F 62.6 °F 83% 29.66 in 10.0 mi NNE 5.8 mph - 0.15 in   Overcast
7:53 PM 66.9 °F 62.1 °F 84% 29.66 in 10.0 mi North 6.9 mph - 0.15 in   Mostly Cloudy
8:53 PM 68.0 °F 64.9 °F 90% 29.66 in 10.0 mi NNW 8.1 mph - 0.01 in Rain Rain
9:53 PM 66.9 °F 63.0 °F 87% 29.65 in 10.0 mi NNE 5.8 mph - 0.02 in Rain Light Rain
10:31 PM 66.2 °F 64.4 °F 94% 29.68 in 3.0 mi ESE 9.2 mph - 0.27 in Rain Heavy Rain
10:53 PM 66.0 °F 64.0 °F 93% 29.66 in 4.0 mi East 4.6 mph - 0.42 in Rain Rain
11:00 PM 66.2 °F 64.4 °F 94% 29.67 in 4.0 mi Calm Calm - 0.02 in Rain Rain
11:53 PM 64.9 °F 64.0 °F 97% 29.64 in 6.0 mi WSW 6.9 mph - 0.03 in Rain Light Rain